Time,TemperatureF,DewpointF,PressureIn,WindDirection,WindDirectionDegrees,WindSpeedMPH,WindSpeedGustMPH,Humidity,HourlyPrecipIn,Conditions,Clouds,dailyrainin,SoftwareType,DateUTC
2013-03-17 00:22:00,55.0,53.0,29.95,SE,140,8.0,-999.0,93,0.00,,,-99.99,,2013-03-17 07:22:00,
2013-03-17 00:32:00,55.0,53.0,29.95,SE,140,8.0,-999.0,93,0.00,,,-99.99,,2013-03-17 07:32:00,
2013-03-17 00:42:00,55.0,53.0,29.95,SE,140,8.0,-999.0,93,0.00,,,-99.99,,2013-03-17 07:42:00,
2013-03-17 01:22:00,55.0,53.0,29.94,SE,130,3.0,-999.0,93,0.00,,,-99.99,,2013-03-17 08:22:00,
2013-03-17 01:32:00,55.0,53.0,29.94,SE,130,3.0,-999.0,93,0.00,,,-99.99,,2013-03-17 08:32:00,
2013-03-17 01:42:00,55.0,53.0,29.94,SE,130,3.0,-999.0,93,0.00,,,-99.99,,2013-03-17 08:42:00,
2013-03-17 02:22:00,56.0,54.0,29.95,SE,130,1.0,-999.0,93,0.00,,,-99.99,,2013-03-17 09:22:00,
2013-03-17 02:32:00,56.0,54.0,29.95,SE,130,1.0,-999.0,93,0.00,,,-99.99,,2013-03-17 09:32:00,
2013-03-17 02:42:00,56.0,54.0,29.95,SE,130,1.0,-999.0,93,0.00,,,-99.99,,2013-03-17 09:42:00,
2013-03-17 03:23:00,56.0,54.0,29.95,SE,140,2.0,-999.0,92,0.00,,,-99.99,,2013-03-17 10:23:00,
2013-03-17 03:33:00,56.0,54.0,29.95,SE,140,2.0,-999.0,92,0.00,,,-99.99,,2013-03-17 10:33:00,
2013-03-17 03:42:00,56.0,54.0,29.95,SE,140,2.0,-999.0,92,0.00,,,-99.99,,2013-03-17 10:42:00,
2013-03-17 04:22:00,55.0,52.0,29.95,North,0,0.0,-999.0,91,0.00,,,-99.99,,2013-03-17 11:22:00,
2013-03-17 04:32:00,55.0,52.0,29.95,North,0,0.0,-999.0,91,0.00,,,-99.99,,2013-03-17 11:32:00,
2013-03-17 04:42:00,55.0,52.0,29.95,North,0,0.0,-999.0,91,0.00,,,-99.99,,2013-03-17 11:42:00,
2013-03-17 05:22:00,55.0,53.0,29.93,SE,140,3.0,-999.0,92,0.00,,,-99.99,,2013-03-17 12:22:00,
2013-03-17 05:32:00,55.0,53.0,29.93,SE,140,3.0,-999.0,92,0.00,,,-99.99,,2013-03-17 12:32:00,
2013-03-17 05:42:00,55.0,53.0,29.93,SE,140,3.0,-999.0,92,0.00,,,-99.99,,2013-03-17 12:42:00,
2013-03-17 06:22:00,55.0,52.0,29.94,North,0,0.0,-999.0,91,0.00,,,-99.99,,2013-03-17 13:22:00,
2013-03-17 06:32:00,55.0,52.0,29.94,North,0,0.0,-999.0,91,0.00,,,-99.99,,2013-03-17 13:32:00,
2013-03-17 06:42:00,55.0,52.0,29.94,North,0,0.0,-999.0,91,0.00,,,-99.99,,2013-03-17 13:42:00,
2013-03-17 07:22:00,56.0,53.0,29.95,North,0,0.0,-999.0,91,0.00,,,-99.99,,2013-03-17 14:22:00,
2013-03-17 07:32:00,56.0,53.0,29.95,North,0,0.0,-999.0,91,0.00,,,-99.99,,2013-03-17 14:32:00,
2013-03-17 07:42:00,56.0,53.0,29.95,North,0,0.0,-999.0,91,0.00,,,-99.99,,2013-03-17 14:42:00,
2013-03-17 08:23:00,56.0,53.0,29.96,North,0,0.0,-999.0,89,0.00,,,-99.99,,2013-03-17 15:23:00,
2013-03-17 08:33:00,56.0,53.0,29.96,North,0,0.0,-999.0,89,0.00,,,-99.99,,2013-03-17 15:33:00,
2013-03-17 08:42:00,56.0,53.0,29.96,North,0,0.0,-999.0,89,0.00,,,-99.99,,2013-03-17 15:42:00,
2013-03-17 09:22:00,56.0,52.0,29.98,North,0,0.0,-999.0,88,0.00,,,-99.99,,2013-03-17 16:22:00,
2013-03-17 09:33:00,56.0,52.0,29.98,North,0,0.0,-999.0,88,0.00,,,-99.99,,2013-03-17 16:33:00,
2013-03-17 09:42:00,56.0,52.0,29.98,North,0,0.0,-999.0,88,0.00,,,-99.99,,2013-03-17 16:42:00,
2013-03-17 10:22:00,58.0,54.0,29.98,SE,130,3.0,-999.0,86,0.00,,,-99.99,,2013-03-17 17:22:00,
2013-03-17 10:33:00,58.0,54.0,29.98,SE,130,3.0,-999.0,86,0.00,,,-99.99,,2013-03-17 17:33:00,
2013-03-17 10:42:00,58.0,54.0,29.98,SE,130,3.0,-999.0,86,0.00,,,-99.99,,2013-03-17 17:42:00,
2013-03-17 11:22:00,60.0,55.0,29.99,SE,130,2.0,-999.0,83,0.00,,,-99.99,,2013-03-17 18:22:00,
2013-03-17 11:32:00,60.0,55.0,29.99,SE,130,2.0,-999.0,83,0.00,,,-99.99,,2013-03-17 18:32:00,
2013-03-17 11:42:00,60.0,55.0,29.99,SE,130,2.0,-999.0,83,0.00,,,-99.99,,2013-03-17 18:42:00,
2013-03-17 12:22:00,61.0,56.0,30.00,South,190,6.0,-999.0,83,0.00,,,-99.99,,2013-03-17 19:22:00,
2013-03-17 12:32:00,61.0,56.0,30.00,South,190,6.0,-999.0,83,0.00,,,-99.99,,2013-03-17 19:32:00,
2013-03-17 12:42:00,61.0,56.0,30.00,South,190,6.0,-999.0,83,0.00,,,-99.99,,2013-03-17 19:42:00,
2013-03-17 13:22:00,61.0,55.0,29.99,SSW,200,7.0,-999.0,81,0.00,,,-99.99,,2013-03-17 20:22:00,
2013-03-17 13:32:00,61.0,55.0,29.99,SSW,200,7.0,-999.0,81,0.00,,,-99.99,,2013-03-17 20:32:00,
2013-03-17 13:42:00,61.0,55.0,29.99,SSW,200,7.0,-999.0,81,0.00,,,-99.99,,2013-03-17 20:42:00,
2013-03-17 14:22:00,61.0,55.0,29.97,SSW,210,11.0,-999.0,81,0.00,,,-99.99,,2013-03-17 21:22:00,
2013-03-17 14:33:00,61.0,55.0,29.97,SSW,210,11.0,-999.0,81,0.00,,,-99.99,,2013-03-17 21:33:00,
2013-03-17 14:42:00,61.0,55.0,29.97,SSW,210,11.0,-999.0,81,0.00,,,-99.99,,2013-03-17 21:42:00,
2013-03-17 15:23:00,61.0,55.0,29.94,SSW,210,9.0,-999.0,81,0.00,,,-99.99,,2013-03-17 22:23:00,
2013-03-17 15:33:00,61.0,55.0,29.94,SSW,210,9.0,-999.0,81,0.00,,,-99.99,,2013-03-17 22:33:00,
2013-03-17 15:42:00,61.0,55.0,29.94,SSW,210,9.0,-999.0,81,0.00,,,-99.99,,2013-03-17 22:42:00,
2013-03-17 16:22:00,61.0,55.0,29.94,SSW,210,5.0,-999.0,81,0.00,,,-99.99,,2013-03-17 23:22:00,
2013-03-17 16:32:00,61.0,55.0,29.94,SSW,210,5.0,-999.0,81,0.00,,,-99.99,,2013-03-17 23:32:00,
2013-03-17 16:42:00,61.0,55.0,29.94,SSW,210,5.0,-999.0,81,0.00,,,-99.99,,2013-03-17 23:42:00,
2013-03-17 17:22:00,61.0,55.0,29.95,SSW,210,2.0,-999.0,82,0.00,,,-99.99,,2013-03-18 00:22:00,
2013-03-17 17:32:00,61.0,55.0,29.95,SSW,210,2.0,-999.0,82,0.00,,,-99.99,,2013-03-18 00:32:00,
2013-03-17 17:42:00,61.0,55.0,29.95,SSW,210,2.0,-999.0,82,0.00,,,-99.99,,2013-03-18 00:42:00,
2013-03-17 18:22:00,60.0,55.0,29.95,SSW,210,2.0,-999.0,85,0.00,,,-99.99,,2013-03-18 01:22:00,
2013-03-17 18:32:00,60.0,55.0,29.95,SSW,210,2.0,-999.0,85,0.00,,,-99.99,,2013-03-18 01:32:00,
2013-03-17 18:42:00,60.0,55.0,29.95,SSW,210,2.0,-999.0,85,0.00,,,-99.99,,2013-03-18 01:42:00,
2013-03-17 19:22:00,59.0,55.0,29.96,SSW,210,1.0,-999.0,88,0.00,,,-99.99,,2013-03-18 02:22:00,
2013-03-17 19:32:00,59.0,55.0,29.96,SSW,210,1.0,-999.0,88,0.00,,,-99.99,,2013-03-18 02:32:00,
2013-03-17 19:42:00,59.0,55.0,29.96,SSW,210,1.0,-999.0,88,0.00,,,-99.99,,2013-03-18 02:42:00,
2013-03-17 20:22:00,59.0,56.0,29.96,North,0,0.0,-999.0,89,0.00,,,-99.99,,2013-03-18 03:22:00,
2013-03-17 20:33:00,59.0,56.0,29.96,North,0,0.0,-999.0,89,0.00,,,-99.99,,2013-03-18 03:33:00,
2013-03-17 20:42:00,59.0,56.0,29.96,North,0,0.0,-999.0,89,0.00,,,-99.99,,2013-03-18 03:42:00,
2013-03-17 21:22:00,58.0,54.0,29.96,South,190,6.0,-999.0,88,0.00,,,-99.99,,2013-03-18 04:22:00,
2013-03-17 21:33:00,58.0,54.0,29.96,South,190,6.0,-999.0,88,0.00,,,-99.99,,2013-03-18 04:33:00,
2013-03-17 21:42:00,58.0,54.0,29.96,South,190,6.0,-999.0,88,0.00,,,-99.99,,2013-03-18 04:42:00,
2013-03-17 22:22:00,58.0,55.0,29.98,SSE,160,1.0,-999.0,89,0.00,,,-99.99,,2013-03-18 05:22:00,
2013-03-17 22:32:00,58.0,55.0,29.98,SSE,160,1.0,-999.0,89,0.00,,,-99.99,,2013-03-18 05:32:00,
2013-03-17 22:43:00,58.0,55.0,29.98,SSE,160,1.0,-999.0,89,0.00,,,-99.99,,2013-03-18 05:43:00,
2013-03-17 23:22:00,58.0,55.0,29.98,SE,140,2.0,-999.0,89,0.00,,,-99.99,,2013-03-18 06:22:00,
2013-03-17 23:32:00,58.0,55.0,29.98,SE,140,2.0,-999.0,89,0.00,,,-99.99,,2013-03-18 06:32:00,
2013-03-17 23:42:00,58.0,55.0,29.98,SE,140,2.0,-999.0,89,0.00,,,-99.99,,2013-03-18 06:42:00,